Regional Weather Roundup
Issued by NWS

Home | Current Version | Previous Version | Text Only | Print | Product List | Glossary Off
Versions: 1 2 3 4 5 6 7 8 9 10 11 12 13 14 15 16 17 18 19 20 21 22 23 24 25 26 27 28 29 30 31 32 33 34 35 36 37 38 39 40 41 42 43 44 45 46 47 48 49 50

000
ASUS43 KMKX 022200
RWRWI

WISCONSIN REGIONAL WEATHER ROUNDUP
NATIONAL WEATHER SERVICE MILWAUKEE/SULLIVAN WI
500 PM CDT WED SEP 02 2015

NOTE: "FAIR" INDICATES FEW OR NO CLOUDS BELOW 12,000 FEET WITH NO
SIGNIFICANT WEATHER AND/OR OBSTRUCTIONS TO VISIBILITY.

WIZ001-002-006>008-014>016-023>028-022300-
NORTHWEST WISCONSIN

CITY           SKY/WX    TMP DP  RH WIND       PRES   REMARKS
SUPERIOR ARPT  MOSUNNY   68  63  84 NE12      29.94F
ASHLAND        PTSUNNY   76  69  79 NE6       29.95S
HAYWARD        CLOUDY    73  65  75 VRB3      29.95S
SIREN          CLOUDY    74  66  75 E5        29.93S
CUMBERLAND     CLOUDY    68  64  88 S9        29.93F
RICE LAKE      CLOUDY    69  66  91 SE5       29.94F
CHETEK         CLOUDY   N/A N/A N/A MISG      29.94S
LADYSMITH      CLOUDY    69  67  94 E6        29.94F
EAU CLAIRE     PTSUNNY   73  68  84 E3        29.90F
MENOMONIE      MOSUNNY   74  69  85 NE5       29.91F
NEW RICHMOND   CLOUDY    69  68  96 E7        29.92F
OSCEOLA        CLOUDY    70  70 100 E8        29.94F
$$

WIZ003>005-009-010-017-018-022300-
NORTH CENTRAL WISCONSIN

CITY           SKY/WX    TMP DP  RH WIND       PRES   REMARKS
MANITOWISH WTR CLOUDY    69  68  97 CALM      29.97R
ARBOR VITAE    CLOUDY    69  67  93 E5        29.96S
WOODRUFF       CLOUDY    69  67  93 E5        29.96S
RHINELANDER    CLOUDY    71  67  87 E7        29.96S
EAGLE RIVER    CLOUDY    69  68  97 N3        29.96S
LAND O LAKES   RAIN      69  67  92 CALM      29.99R
PHILLIPS       PTSUNNY   67  67  97 CALM      29.95S
TOMAHAWK       CLOUDY    69  67  93 CALM      29.96R
MEDFORD        LGT RAIN  67  67  97 NE6       29.96R
MERRILL        CLOUDY    71  69  95 NE3       29.95R
$$

WIZ029-030-035-036-043>047-022300-
CENTRAL WISCONSIN

CITY           SKY/WX    TMP DP  RH WIND       PRES   REMARKS
WAUSAU         LGT RAIN  72  68  87 E15       29.87F
MOSINEE        NOT AVBL
MARSHFIELD     PTSUNNY   81  68  64 SE3       29.92F HX  84
STEVENS POINT  MOSUNNY   83  65  54 SW12      29.93F HX  85
WAUPACA        MOSUNNY   88  67  48 S8        29.93S HX  91
WAUTOMA        NOT AVBL
WISC RAPIDS    MOSUNNY   86  65  49 S12       29.92F HX  88
CAMP DOUGLAS   NOT AVBL
$$

WIZ011>013-019>022-031-037>040-048>050-022300-
NORTHEAST WISCONSIN

CITY           SKY/WX    TMP DP  RH WIND       PRES   REMARKS
ANTIGO         CLOUDY    69  66  91 N10       29.95F
SHAWANO        PTSUNNY   79  67  66 NE8       29.93F HX  81
OCONTO         CLOUDY    70  70 100 CALM      29.93F
STURGEON BAY   CLOUDY    70  64  83 NE12      29.97S
GREEN BAY      PTSUNNY   85  70  60 S7        29.92F HX  89
MANITOWOC      NOT AVBL
APPLETON       NOT AVBL
CLINTONVILLE   MOSUNNY   81  64  57 NE8       29.91F HX  82
OSHKOSH        MOSUNNY   84  67  56 SW12      29.93S HX  86
$$

WIZ032>034-041-042-053>061-022300-
SOUTHWEST WISCONSIN

CITY           SKY/WX    TMP DP  RH WIND       PRES   REMARKS
LA CROSSE      CLOUDY    83  68  60 S8        29.89F HX  86
SPARTA         CLOUDY    82  65  55 S7        29.93R HX  84
VIROQUA          N/A     81  69  65 SW6       29.94F HX  84
BOSCOBEL       CLOUDY    87  67  51 S9        29.91F HX  90
PRAIRIE DU CHI CLOUDY    83  66  56 S8        29.91F HX  85
PLATTEVILLE    MOSUNNY   81  72  73 S13       29.95F HX  86
$$

WIZ056-057-062-063-064-067-068-022300-
SOUTH CENTRAL WISCONSIN

CITY           SKY/WX    TMP DP  RH WIND       PRES   REMARKS
REEDSBURG      SUNNY     85  67  55 S12       29.93F HX  88
BARABOO/DELLS  SUNNY     87  64  46 SW10      29.94F HX  88
LONE ROCK      NOT AVBL
MINERAL POINT  SUNNY     82  70  65 S8        29.96F HX  86
MADISON        PTSUNNY   84  69  60 VRB7      29.94F HX  88
MIDDLETON      PTSUNNY   87  67  52 SW10      29.95F HX  89
WATERTOWN      PTSUNNY   84  69  61 SW10      29.95F HX  87
MONROE         PTSUNNY   82  68  61 SW12G20   29.97F HX  85
JANESVILLE     MOSUNNY   84  66  54 SW12G17   29.95F HX  86
$$

WIZ051-052-058>065-066-070>072-022300-
SOUTHEAST WISCONSIN

CITY           SKY/WX    TMP DP  RH WIND       PRES   REMARKS
MILWAUKEE      PTSUNNY   86  67  52 SW13      29.94F HX  89
WAUKESHA       SUNNY     82  68  61 SW7       29.97F HX  85
MILWAUKEE/TIMM MOSUNNY   84  64  51 SW9       29.95F HX  86
RACINE         PTSUNNY   83  67  58 S6        29.96F HX  85
BURLINGTON     CLOUDY    82  69  63 SW3       29.96F HX  85
KENOSHA        PTSUNNY   86  70  58 SW8       29.95F HX  90
FOND DU LAC    MOSUNNY   85  68  56 SW8       29.94S HX  88
SHEBOYGAN      PTSUNNY   84  70  62 W12       29.95R HX  88
WEST BEND      CLOUDY    84  64  51 SW6       29.95F HX  86
JUNEAU         MOSUNNY   83  69  61 SW10      29.96F HX  86
$$

LSZ147-162-022300-
LAKE SUPERIOR

STATION/POSITION TIME  TEMP    WIND        PRES    WAVE
                       AIR SEA DIR/SP/G            HT/PER
                 (UTC) (F)     (DEG/KT/KT) (MB)    (FT/S)
W MID LAKE BUOY  2050   58 56   70/  8/  8 1014.3F   0
DEVILS ISLAND    2100   62      60/  4/  5 1014.4F
PORT WING        2140   66      30/ 12/ 14 1013.9F
SAXON HARBOR     2100   66     360/ 12/ 15 1013.5R
$$

LMZ867-665-643>646-022300-
LAKE MICHIGAN

STATION/POSITION TIME  TEMP    WIND        PRES    WAVE
                       AIR SEA DIR/SP/G            HT/PER
                 (UTC) (F)     (DEG/KT/KT) (MB)    (FT/S)
CHAMBERS ISLAND  2100   68      40/  7/ 11 1013.9S
S GREEN BAY BUOY 2100   75 69  150/ 10/ 16 1014.9
N MID LAKE BUOY  2050   69 66   90/  8/ 10 1013.6F   1/ 3
NORTHPORT PIER   2100   68     140/  5/  6 1014.2S
SISTER BAY       2119          110/  9/ 12   N/A
ALGOMA LAKESHORE 2114           80/  7/  8   N/A
KEWAUNEE LAKESHO 2100   61     160/  6/  7 1012.8F
SHEBOYGAN LAKESH 2100   77     180/ 13/ 13 1013.6F
PORT WASHINGTON  2100   67     170/  3/  5 1014.6F
ATWATER BUOY     2100   62     130/  8/ 12 1015.4F
MILWAUKEE LAKESH 2110   86     210/ 14/ 16   N/A
S MID LAKE BUOY  2050   74 72  170/  8/  8 1014.5F   1
KENOSHA   LAKESH 2100   68     170/ 10/ 13 1014.2F
$$

TC  - TEMPERATURE IN CELSIUS
VSB - VISIBILITY IN STATUTE MILES
WCI - WIND CHILL INDEX
HX  - HEAT INDEX




USA.gov is the U.S. government's official web portal to all federal, state and local government web resources and services.